Location: Newark
(45.5000°N, 11.4167°E)
Time: 05:42:23
(UTC+00:00)

Vanguard 2 - Pass Details

Date: 27 August 2019
Orbit: 554 x 2937 km, 32.9° (Epoch: 17 September)

Event Time Altitude Azimuth Distance (km) Brightness Sun altitude
Rises 12:58:48 0° 250° (WSW) 3,347 11.4 48.3°
Reaches altitude 10° 13:01:10 10° 239° (WSW) 2,636 11.2 48.0°
Maximum altitude 13:06:44 31° 178° (S) 2,012 10.7 47.3°
Drops below altitude 10° 13:15:11 10° 122° (ESE) 4,071 11.2 46.3°
Sets 13:19:49 0° 114° (ESE) 5,497 11.7 45.7°
